TimeEDT,TemperatureF,Dew PointF,Humidity,Sea Level PressureIn,VisibilityMPH,Wind Direction,Wind SpeedMPH,Gust SpeedMPH,PrecipitationIn,Events,Conditions,WindDirDegrees,DateUTC
12:15 AM,60.8,57.2,88,30.13,10.0,Calm,Calm,-,N/A,,Clear,0,2013-05-25 04:15:00
12:35 AM,60.8,57.2,88,30.14,10.0,Calm,Calm,-,N/A,,Clear,0,2013-05-25 04:35:00
12:55 AM,59.0,57.2,94,30.14,10.0,Calm,Calm,-,N/A,,Clear,0,2013-05-25 04:55:00
1:15 AM,59.0,57.2,94,30.14,10.0,Calm,Calm,-,N/A,,Clear,0,2013-05-25 05:15:00
1:35 AM,59.0,57.2,94,30.13,10.0,Calm,Calm,-,N/A,,Clear,0,2013-05-25 05:35:00
1:55 AM,59.0,57.2,94,30.13,10.0,Calm,Calm,-,N/A,,Clear,0,2013-05-25 05:55:00
2:15 AM,57.2,55.4,94,30.13,10.0,Calm,Calm,-,N/A,,Clear,0,2013-05-25 06:15:00
2:35 AM,57.2,57.2,100,30.13,10.0,Calm,Calm,-,N/A,,Clear,0,2013-05-25 06:35:00
2:55 AM,57.2,57.2,100,30.13,10.0,Calm,Calm,-,N/A,,Clear,0,2013-05-25 06:55:00
3:15 AM,57.2,57.2,100,30.13,10.0,Calm,Calm,-,N/A,,Clear,0,2013-05-25 07:15:00
3:35 AM,57.2,57.2,100,30.13,10.0,Calm,Calm,-,N/A,,Clear,0,2013-05-25 07:35:00
3:55 AM,57.2,57.2,100,30.13,10.0,Calm,Calm,-,N/A,,Clear,0,2013-05-25 07:55:00
4:15 AM,57.2,57.2,100,30.13,10.0,Calm,Calm,-,N/A,,Clear,0,2013-05-25 08:15:00
4:35 AM,57.2,57.2,100,30.13,10.0,Calm,Calm,-,N/A,,Clear,0,2013-05-25 08:35:00
4:55 AM,57.2,57.2,100,30.14,10.0,Calm,Calm,-,N/A,,Clear,0,2013-05-25 08:55:00
5:15 AM,57.2,57.2,100,30.14,10.0,Calm,Calm,-,N/A,,Clear,0,2013-05-25 09:15:00
5:35 AM,57.2,57.2,100,30.14,10.0,Calm,Calm,-,N/A,,Clear,0,2013-05-25 09:35:00
5:55 AM,57.2,57.2,100,30.15,10.0,Calm,Calm,-,N/A,,Clear,0,2013-05-25 09:55:00
6:15 AM,57.2,57.2,100,30.16,9.0,Calm,Calm,-,N/A,,Clear,0,2013-05-25 10:15:00
6:35 AM,57.2,57.2,100,30.17,8.0,Calm,Calm,-,N/A,,Clear,0,2013-05-25 10:35:00
6:50 AM,57.2,57.2,100,30.17,10.0,Calm,Calm,-,N/A,,Clear,0,2013-05-25 10:50:00
7:50 AM,60.8,60.8,100,30.21,10.0,Calm,Calm,-,N/A,,Clear,0,2013-05-25 11:50:00
8:50 AM,71.6,60.8,69,30.23,10.0,NE,6.9,-,N/A,,Clear,40,2013-05-25 12:50:00
9:50 AM,75.2,55.4,50,30.25,10.0,NE,8.1,-,N/A,,Clear,50,2013-05-25 13:50:00
10:50 AM,77.0,53.6,44,30.26,10.0,East,8.1,-,N/A,,Clear,80,2013-05-25 14:50:00
11:50 AM,78.8,53.6,42,30.27,10.0,NE,8.1,-,N/A,,Clear,50,2013-05-25 15:50:00
12:50 PM,78.8,55.4,44,30.26,10.0,ENE,9.2,-,N/A,,Clear,60,2013-05-25 16:50:00
1:50 PM,78.8,55.4,44,30.24,10.0,NE,9.2,-,N/A,,Clear,50,2013-05-25 17:50:00
2:50 PM,80.6,55.4,42,30.22,10.0,ENE,11.5,-,N/A,,Clear,60,2013-05-25 18:50:00
3:50 PM,78.8,53.6,42,30.21,10.0,East,9.2,-,N/A,,Clear,90,2013-05-25 19:50:00
4:50 PM,78.8,53.6,42,30.19,10.0,East,11.5,-,N/A,,Clear,90,2013-05-25 20:50:00
5:50 PM,77.0,55.4,47,30.20,10.0,East,11.5,-,N/A,,Clear,90,2013-05-25 21:50:00
6:50 PM,75.2,55.4,50,30.20,10.0,East,11.5,-,N/A,,Clear,90,2013-05-25 22:50:00
7:50 PM,73.4,55.4,53,30.21,10.0,East,9.2,-,N/A,,Clear,90,2013-05-25 23:50:00
8:15 PM,71.6,55.4,57,30.21,10.0,East,3.5,-,N/A,,Clear,80,2013-05-26 00:15:00
8:35 PM,68.0,55.4,64,30.20,10.0,Calm,Calm,-,N/A,,Clear,0,2013-05-26 00:35:00
8:55 PM,66.2,57.2,73,30.21,10.0,Calm,Calm,-,N/A,,Clear,0,2013-05-26 00:55:00
9:15 PM,64.4,57.2,77,30.21,10.0,Calm,Calm,-,N/A,,Clear,0,2013-05-26 01:15:00
9:35 PM,62.6,57.2,82,30.21,10.0,Calm,Calm,-,N/A,,Clear,0,2013-05-26 01:35:00
9:55 PM,60.8,57.2,88,30.22,10.0,Calm,Calm,-,N/A,,Clear,0,2013-05-26 01:55:00
10:15 PM,59.0,57.2,94,30.23,10.0,Calm,Calm,-,N/A,,Clear,0,2013-05-26 02:15:00
10:35 PM,59.0,55.4,88,30.23,10.0,Calm,Calm,-,N/A,,Clear,0,2013-05-26 02:35:00
10:55 PM,57.2,55.4,94,30.23,10.0,Calm,Calm,-,N/A,,Clear,0,2013-05-26 02:55:00
11:15 PM,57.2,57.2,100,30.23,10.0,Calm,Calm,-,N/A,,Clear,0,2013-05-26 03:15:00
11:35 PM,57.2,55.4,94,30.22,10.0,Calm,Calm,-,N/A,,Clear,0,2013-05-26 03:35:00
11:55 PM,57.2,57.2,100,30.22,10.0,Calm,Calm,-,N/A,,Clear,0,2013-05-26 03:55:00